Weather reports worldwide

Advertisment
Isle Of Portland, United Kingdom (3857): temperature & dewpoint: 18.01.2020 01:00:00 - 24.01.2020 01:00:00 (GMT)Isle Of Portland, United Kingdom (3857): wind speed & gusts: 18.01.2020 01:00:00 - 24.01.2020 01:00:00 (GMT)Isle Of Portland, United Kingdom (3857): wind direction: 18.01.2020 01:00:00 - 24.01.2020 01:00:00 (GMT)Isle Of Portland, United Kingdom (3857): reduced air pressure: 18.01.2020 01:00:00 - 24.01.2020 01:00:00 (GMT)Isle Of Portland, United Kingdom (3857): visibility: 18.01.2020 01:00:00 - 24.01.2020 01:00:00 (GMT)Isle Of Portland, United Kingdom (3857): precipitation: 18.01.2020 01:00:00 - 24.01.2020 01:00:00 (GMT)
Date & Time tt [°C] td [°C] ff [km/h] ff [kn] fx [km/h] fx [kn] dd ppp [hPa] vv [km] rr [mm]
24.01.2020 01:00:00 - - - - - - - - - 0,0
24.01.2020 00:00:00 5,7 4,5 16 9 - - NE 1026,5 14 0,0
23.01.2020 23:00:00 5,5 4,5 15 8 - - NE 1026,8 10 0,0
23.01.2020 22:00:00 5,4 4,5 18 10 - - ENE 1027,3 10 0,0
23.01.2020 21:00:00 5,4 4,0 13 7 - - NE 1027,2 12 0,0
23.01.2020 20:00:00 5,8 4,2 15 8 - - ENE 1027,2 15 0,0
23.01.2020 19:00:00 5,9 3,8 18 10 - - E 1027,4 29 0,0
23.01.2020 18:00:00 6,2 4,0 16 9 - - ENE 1027,9 30 0,0
23.01.2020 17:00:00 6,3 4,0 21 11 - - E 1028,3 28 0,0
23.01.2020 16:00:00 6,3 4,1 21 11 - - E 1028,8 28 0,0
23.01.2020 15:00:00 6,4 4,2 22 12 - - E 1029,2 26 0,0
23.01.2020 14:00:00 6,4 4,6 24 13 - - ENE 1029,7 19 0,0
23.01.2020 13:00:00 6,6 5,2 28 15 - - E 1030,5 14 0,0
23.01.2020 12:00:00 6,6 5,2 28 15 - - E 1031,4 15 0,0
23.01.2020 11:00:00 6,7 5,4 28 15 - - ENE 1032,0 16 0,0
23.01.2020 10:00:00 6,6 5,5 31 17 - - E 1031,8 21 0,0
23.01.2020 09:00:00 6,4 5,9 26 14 - - ENE 1032,3 7 0,0
23.01.2020 08:00:00 6,3 5,8 26 14 - - ENE 1032,3 9 0,0
23.01.2020 07:00:00 6,3 5,9 24 13 - - ENE 1032,4 9 0,0
23.01.2020 06:00:00 6,3 5,9 28 15 - - ENE 1032,3 8 0,0
23.01.2020 05:00:00 6,3 5,7 22 12 - - NE 1032,8 8 0,0
23.01.2020 04:00:00 6,9 6,0 29 16 - - ENE 1032,9 11 0,0
23.01.2020 03:00:00 6,9 6,1 29 16 - - ENE 1033,6 13 0,0
23.01.2020 02:00:00 6,9 5,9 29 16 - - E 1034,1 15 0,0
23.01.2020 01:00:00 6,8 5,7 34 18 - - E 1034,5 17 0,0
23.01.2020 00:00:00 6,6 5,1 35 19 48 26 E 1035,2 30 0,0
22.01.2020 23:00:00 6,6 5,7 31 17 - - E 1035,5 12 0,0
22.01.2020 22:00:00 6,7 5,9 29 16 - - ENE 1035,6 11 0,0
22.01.2020 21:00:00 6,7 5,9 29 16 - - E 1035,5 12 0,0
22.01.2020 20:00:00 6,9 6,2 28 15 - - E 1035,9 8 0,0
22.01.2020 19:00:00 7,0 6,1 26 14 - - ENE 1035,7 18 0,0
22.01.2020 18:00:00 6,8 5,9 24 13 - - ENE 1035,8 27 0,0
22.01.2020 17:00:00 6,6 6,3 18 10 - - ENE 1035,8 5 0,0
22.01.2020 16:00:00 6,3 6,0 15 8 - - ENE 1036,0 7 0,0
22.01.2020 15:00:00 6,1 5,9 16 9 - - ENE 1036,2 10 0,0
22.01.2020 14:00:00 5,7 5,5 18 10 - - ENE 1036,7 3,0 0,0
22.01.2020 13:00:00 5,6 5,4 21 11 - - ENE 1037,2 4,4 0,0
22.01.2020 12:00:00 5,3 4,9 15 8 - - NE 1037,8 5 0,0
22.01.2020 11:00:00 5,3 4,9 22 12 - - ENE 1037,6 10 0,0
22.01.2020 10:00:00 4,7 4,4 21 11 - - ENE 1037,6 12 0,0
22.01.2020 09:00:00 4,7 4,1 15 8 - - NE 1037,8 13 0,0
22.01.2020 08:00:00 4,5 4,0 15 8 - - NNE 1037,6 8 0,0
22.01.2020 07:00:00 3,9 3,4 15 8 - - NNE 1037,6 5 0,0
22.01.2020 06:00:00 3,8 3,0 15 8 - - NNE 1037,9 9 0,0
22.01.2020 05:00:00 3,4 2,3 11 6 - - NNE 1038,0 11 0,0
22.01.2020 04:00:00 3,9 2,4 13 7 - - NE 1038,4 22 0,0
22.01.2020 03:00:00 4,1 1,9 15 8 - - NNE 1038,8 24 0,0
22.01.2020 02:00:00 4,0 1,9 18 10 - - NNE 1039,3 20 0,0
22.01.2020 01:00:00 4,3 2,1 18 10 - - NNE 1039,8 23 0,0
22.01.2020 00:00:00 3,9 2,4 21 11 - - NNE 1040,5 19 0,0
21.01.2020 23:00:00 3,7 2,6 9 5 - - NNE 1040,1 14 0,0
21.01.2020 22:00:00 4,1 2,9 15 8 - - NE 1040,2 14 0,0
21.01.2020 21:00:00 4,0 2,5 11 6 - - NE 1040,4 16 0,0
21.01.2020 20:00:00 4,2 2,6 9 5 - - NNE 1040,4 16 0,0
21.01.2020 19:00:00 4,5 2,3 13 7 - - NNE 1040,7 16 0,0
21.01.2020 18:00:00 4,9 2,8 15 8 - - NE 1040,6 23 0,0
21.01.2020 17:00:00 5,5 3,0 15 8 - - ENE 1040,5 25 0,0
21.01.2020 16:00:00 6,3 2,9 13 7 - - ENE 1040,6 35 0,0
21.01.2020 15:00:00 7,1 2,8 15 8 - - ENE 1040,7 50 0,0
21.01.2020 14:00:00 7,4 2,0 15 8 - - ENE 1041,1 27 0,0
21.01.2020 13:00:00 7,3 3,3 16 9 - - ENE 1041,7 35 0,0
21.01.2020 12:00:00 7,3 4,1 13 7 - - NNE 1042,2 30 0,0
21.01.2020 11:00:00 6,6 4,5 15 8 - - ENE 1042,8 16 0,0
21.01.2020 10:00:00 5,2 3,9 13 7 - - NE 1042,8 21 0,0
21.01.2020 09:00:00 3,5 2,5 13 7 - - NNE 1042,7 11 0,0
21.01.2020 08:00:00 3,1 2,3 16 9 - - ENE 1042,7 11 0,0
21.01.2020 07:00:00 3,1 2,3 13 7 - - NE 1042,7 12 0,0
21.01.2020 06:00:00 2,8 1,9 13 7 - - NE 1042,7 11 0,0
21.01.2020 05:00:00 3,5 2,3 13 7 - - NE 1042,5 20 0,0
21.01.2020 04:00:00 3,0 2,1 13 7 - - ENE 1042,6 12 0,0
21.01.2020 03:00:00 3,2 2,3 11 6 - - N 1043,4 10 0,0
21.01.2020 02:00:00 3,5 2,3 11 6 - - N 1044,0 21 0,0
21.01.2020 01:00:00 4,3 2,9 4 2 - - NNE 1044,5 26 0,0
21.01.2020 00:00:00 3,8 2,4 9 5 - - N 1045,3 17 0,0
20.01.2020 23:00:00 4,3 2,3 8 4 - - N 1045,2 25 0,0
20.01.2020 22:00:00 6,0 4,2 22 12 - - NNW 1045,1 24 0,0
20.01.2020 21:00:00 5,9 3,0 18 10 - - NNW 1045,9 22 0,0
20.01.2020 20:00:00 5,6 2,2 16 9 - - NNW 1046,1 30 0,0
20.01.2020 19:00:00 5,4 1,7 13 7 - - NNW 1046,6 28 0,0
20.01.2020 18:00:00 5,2 0,7 11 6 - - NNE 1046,8 12 0,0
20.01.2020 17:00:00 6,5 -0,4 8 4 - - NW 1046,8 50 0,0
20.01.2020 16:00:00 8,8 -1,2 5 3 - - NW 1047,1 40 0,0
20.01.2020 15:00:00 9,0 -3,9 4 2 - - SW 1047,4 50 0,0
20.01.2020 14:00:00 8,6 -3,8 8 4 - - SE 1048,1 45 0,0
20.01.2020 13:00:00 7,8 -1,2 2 1 - - ESE 1048,5 40 0,0
20.01.2020 12:00:00 9,2 -0,8 5 3 - - E 1049,0 30 0,0
20.01.2020 11:00:00 7,6 -2,7 2 1 - - SE 1049,3 45 0,0
20.01.2020 10:00:00 6,6 -0,2 4 2 - - N 1049,5 50 0,0
20.01.2020 09:00:00 5,6 -1,9 5 3 - - NE 1049,6 40 0,0
20.01.2020 08:00:00 4,7 -3,2 5 3 - - NE 1049,2 45 0,0
20.01.2020 07:00:00 3,8 -1,8 9 5 - - N 1049,0 45 0,0
20.01.2020 06:00:00 5,0 -0,3 5 3 - - NNE 1049,0 45 0,0
20.01.2020 05:00:00 4,6 -0,9 8 4 - - N 1048,6 45 0,0
20.01.2020 04:00:00 4,4 0,0 8 4 - - N 1048,6 30 0,0
20.01.2020 03:00:00 4,0 0,6 8 4 - - ENE 1049,2 30 0,0
20.01.2020 02:00:00 5,0 1,3 8 4 - - NE 1049,5 30 0,0
20.01.2020 01:00:00 5,1 1,4 11 6 - - ENE 1049,6 30 0,0
20.01.2020 00:00:00 5,0 0,6 18 10 - - E 1049,6 30 0,0
19.01.2020 23:00:00 4,1 -0,6 16 9 - - ENE 1049,7 35 0,0
19.01.2020 22:00:00 4,4 -1,2 16 9 - - NE 1049,5 35 0,0
19.01.2020 21:00:00 4,9 0,0 22 12 - - NE 1049,0 35 0,0
19.01.2020 20:00:00 4,4 1,0 21 11 - - NNE 1049,1 7 0,0
19.01.2020 19:00:00 3,9 1,4 11 6 - - N 1049,0 17 0,0
19.01.2020 18:00:00 4,5 1,4 9 5 - - N 1048,1 15 0,0
19.01.2020 17:00:00 5,5 1,8 15 8 - - NNW 1047,7 15 0,0
19.01.2020 16:00:00 6,5 1,7 16 9 - - N 1047,3 7 0,0
19.01.2020 15:00:00 7,6 1,8 16 9 - - N 1046,6 3,3 0,0
19.01.2020 14:00:00 7,8 1,8 13 7 - - NNW 1046,3 8 0,0
19.01.2020 13:00:00 7,6 1,8 9 5 - - N 1046,2 9 0,0
19.01.2020 12:00:00 7,0 1,4 13 7 - - N 1046,3 4,9 0,0
19.01.2020 11:00:00 5,8 0,9 18 10 - - NE 1045,9 35 0,0
19.01.2020 10:00:00 5,0 1,7 16 9 - - N 1045,4 30 0,0
19.01.2020 09:00:00 4,0 0,9 11 6 - - NNE 1044,4 20 0,0
19.01.2020 08:00:00 3,0 0,4 11 6 - - NNE 1043,5 30 0,0
19.01.2020 07:00:00 3,0 1,0 16 9 - - NNE 1042,5 25 0,0
19.01.2020 06:00:00 3,3 1,1 21 11 - - NNE 1041,7 30 0,0
19.01.2020 05:00:00 3,6 1,3 22 12 - - NNE 1040,9 30 0,0
19.01.2020 04:00:00 4,2 1,7 16 9 - - N 1040,2 28 0,0
19.01.2020 03:00:00 4,1 1,3 18 10 - - N 1039,8 26 0,0
19.01.2020 02:00:00 3,8 0,8 18 10 - - N 1039,0 21 0,0
19.01.2020 01:00:00 4,0 0,8 22 12 - - N 1038,1 25 0,0
19.01.2020 00:00:00 4,4 0,4 21 11 - - N 1037,5 25 0,0
18.01.2020 23:00:00 4,2 0,5 22 12 - - N 1036,5 21 0,0
18.01.2020 22:00:00 4,5 0,7 21 11 - - NNE 1035,8 30 0,0
18.01.2020 21:00:00 4,8 1,0 18 10 - - NNE 1034,9 27 0,0
18.01.2020 20:00:00 4,7 1,3 15 8 - - NNE 1034,4 22 0,0
18.01.2020 19:00:00 4,6 1,6 15 8 - - NNE 1033,3 24 0,0
18.01.2020 18:00:00 4,6 2,0 15 8 - - NNE 1032,1 23 0,0
18.01.2020 17:00:00 4,9 1,3 13 7 - - NNE 1031,5 30 0,0
18.01.2020 16:00:00 6,1 0,8 22 12 - - NNE 1030,6 26 0,0
18.01.2020 15:00:00 7,1 1,6 15 8 - - NNE 1030,0 40 0,0
18.01.2020 14:00:00 7,8 1,5 15 8 - - NNE 1029,4 35 0,0
18.01.2020 13:00:00 8,0 2,3 13 7 - - N 1029,0 20 0,0
18.01.2020 12:00:00 7,9 3,0 11 6 - - N 1028,8 10 0,0
18.01.2020 11:00:00 7,2 3,3 9 5 - - N 1028,7 8 0,0
18.01.2020 10:00:00 5,6 2,6 15 8 - - NNE 1027,9 17 0,0
18.01.2020 09:00:00 5,6 3,4 13 7 - - N 1027,4 9 0,0
18.01.2020 08:00:00 5,0 3,3 9 5 - - N 1027,1 13 0,0
18.01.2020 07:00:00 5,6 3,7 16 9 - - NNW 1026,5 12 0,0
18.01.2020 06:00:00 5,5 4,0 16 9 - - NW 1025,9 13 0,0
18.01.2020 05:00:00 5,2 3,5 11 6 - - NNW 1025,5 9 0,0
18.01.2020 04:00:00 5,7 3,6 16 9 - - NNW 1024,7 15 0,0
18.01.2020 03:00:00 6,3 3,8 22 12 - - NW 1024,4 15 0,0
18.01.2020 02:00:00 6,8 3,9 26 14 48 26 NW 1023,7 13 0,0
18.01.2020 01:00:00 7,4 3,9 39 21 52 28 WNW 1022,9 18 0,0

tt = temperature
td = dewpoint
ff = wind speed
fx = gusts
dd = wind direction
ppp = reduced air pressure
vv = visibility
rr = precipitation

Next stations